Regional Weather Roundup
Issued by NWS

Home | Current Version | Previous Version | Text Only | Print | Product List | Glossary Off
Versions: 1 2 3 4 5 6 7 8 9 10 11 12 13 14 15 16 17 18 19 20 21 22 23 24 25 26 27

000
ASUS45 KBOU 170607
RWRCO

WEATHER ROUNDUP FOR COLORADO
NATIONAL WEATHER SERVICE DENVER/BOULDER CO
1100 PM MST MON JAN 16 2017

NOTE: "FAIR" INDICATES FEW OR NO CLOUDS BELOW 12000 FEET WITH NO
SIGNIFICANT WEATHER AND/OR OBSTRUCTIONS TO VISIBILITY.

COZ001>005-013-030-031-170700-
...NORTHWEST COLORADO...

CITY           SKY/WX    TMP DP  RH WIND       PRES   REMARKS
CRAIG          CLOUDY    15  12  88 S3        30.19R
HAYDEN         CLOUDY    16  12  86 CALM      30.15S
MEEKER         FAIR      16  11  80 SW6       30.15S WCI   7
MOUNT WERNER   NOT AVBL
STEAMBOAT SPGS CLOUDY    18  16  95 CALM      30.14S
WALDEN           N/A    N/A N/A N/A CALM      30.11S VSB 1/4
$$

COZ006>008-011-170700-
...WEST CENTRAL VALLEYS...

CITY           SKY/WX    TMP DP  RH WIND       PRES   REMARKS
GRAND JUNCTION FAIR      30  21  69 CALM      30.13R
MONTROSE       CLOUDY    30  24  78 SE7       30.15R WCI  23
EAGLE          CLOUDY    23  19  86 CALM      30.14
RIFLE          FAIR      24  18  77 CALM      30.15S
DELTA          CLOUDY    37  30  76 CALM      30.14R
NUCLA          FAIR      30  25  80 CALM      30.14R
$$

COZ017>023-064>068-170700-
...SOUTHWEST COLORADO...

CITY           SKY/WX    TMP DP  RH WIND       PRES   REMARKS
DURANGO        LGT SNOW  31  30  96 NE3       30.10R FOG
CORTEZ         CLOUDY    34  33  96 CALM      30.09R
PAGOSA SPRINGS LGT SNOW  31  31 100 CALM      30.10R
TELLURIDE      CLOUDY    24  24  98 CALM      30.08R
WOLF CREEK PAS   N/A     18  18 100 CALM      30.15R
$$

COZ009-010-012-014-032>034-037-058>063-170700-
...CENTRAL COLORADO...

CITY           SKY/WX    TMP DP  RH WIND       PRES   REMARKS
ASPEN          CLOUDY    25  20  81 NW3       30.09R
BUENA VISTA    LGT SNOW  29  28  94 SE6       30.10S WCI  23
COPPER MTN     FAIR      23  18  80 MISG      30.09R
BERTHOUD PASS  NOT AVBL
COTTONWOOD PAS FOG       28  27  93 CALM      30.09S VSB 1/2
GUNNISON       CLOUDY    24  23  96 CALM      30.10R
KREMMLING      FAIR      12   9  85 CALM      30.13S
LEADVILLE      FOG       22  20  92 S5        30.08R VSB 1/4 WCI  16
MONARCH PASS     N/A     18  16  93 MISG      30.20R
SALIDA         CLOUDY    30  29  95 SE5       30.18S WCI  25
SUNLIGHT       CLOUDY    19  18  93 NE6       30.12S FOG     WCI  11
WILKERSON PASS FOG      N/A N/A N/A W5        30.11S VSB 1/2
$$

COZ069>075-170700-
...SAN LUIS VALLEY/SANGRE DE CRISTO MOUNTAINS...

CITY           SKY/WX    TMP DP  RH WIND       PRES   REMARKS
ALAMOSA        FLURRIES  28  26  92 SW5       30.09S WCI  23
LA VETA PASS   LGT SNOW  21  18  86 SW6       30.10S WCI  14
SAGUACHE       LGT SNOW  30  30 100 E3        30.09S
$$

COZ035-036-038>040-170700-
...NORTHERN COLORADO FRONT RANGE...

CITY           SKY/WX    TMP DP  RH WIND       PRES   REMARKS
DENVER INTL AP MOCLDY    32  23  69 SW10      30.09F WCI  24
DMNS CITY PARK   N/A     30  24  78 E7G13     30.10S WCI  23
AURORA         MOCLDY    27  23  84 S8        30.09F WCI  19
FRONT RANGE AP CLOUDY    34  27  75 S9        30.10S WCI  26
ERIE MUNI ARPT FAIR      32  27  83 CALM      30.09F
BOULDER MUN AP CLOUDY    34  30  86 CALM      30.08F
CENTENNIAL     MOCLDY    23  19  85 S6        30.09F WCI  16
BROOMFIELD     CLOUDY    32  28  86 S5        30.09F WCI  27
FORT COLLINS   FAIR      27  21  80 CALM      30.10S
LONGMONT       FAIR      28  26  93 CALM      30.11S
$$

COZ041-046-047-076>085-087-088-170700-
...PIKES PEAK/PALMER DIVIDE AND SOUTHERN FOOTHILLS...

CITY           SKY/WX    TMP DP  RH WIND       PRES   REMARKS
COLO. SPRINGS  CLOUDY    29  24  82 SW6       30.13S WCI  23
A. F. ACADEMY  MOCLDY    25  21  86 N5        30.10F WCI  19
SCHRIEVER AFB  NOT AVBL
ELLICOTT       CLOUDY   N/A N/A N/A NW5       30.11S
FALCON         CLOUDY    28  23  81 SW3       30.11F
FORT CARSON    LGT SNOW  30  28  93 SW5       30.14S FOG     WCI  25
LIMON          CLOUDY    29  23  78 NW8       30.10S WCI  21
MONUMENT HILL  MOCLDY    21  19  93 S5        30.11S WCI  15
TRINIDAD       LGT SNOW  30  28  92 NW5       30.16S VSB 1   WCI  25
$$

COZ042>045-048>051-090-091-170700-
...NORTHEAST COLORADO...

CITY           SKY/WX    TMP DP  RH WIND       PRES   REMARKS
GREELEY ARPT   FAIR      24  21  88 NW6       30.12S WCI  17
AKRON          FAIR      26  16  65 NW12      30.08S WCI  16
BURLINGTON     FAIR      28  23  81 W8        30.09S WCI  20
WRAY           NOT AVBL
STERLING       FAIR      23  18  80 W5        30.09S WCI  17
HOLYOKE        FAIR      32  21  64 NW12G17   30.08F WCI  23
FORT MORGAN    FAIR      26  18  71 NW8       30.11S WCI  18
$$

COZ086-089-092>099-170700-
...SOUTHEAST COLORADO...

CITY           SKY/WX    TMP DP  RH WIND       PRES   REMARKS
PUEBLO         LGT SNOW  33  31  92 SW6       30.15S FOG     WCI  28
LA JUNTA       LGT SNOW  34  31  88 W8        30.16S FOG     WCI  27
LAMAR          LGT SNOW  33  31  92 W9        30.14S FOG     WCI  25
SPRINGFIELD      N/A     31  30  96 NW14      30.13R WCI  21
$$




USA.gov is the U.S. government's official web portal to all federal, state and local government web resources and services.